Météo par heure à Julinki

Ce jour, 20 Juin, Dimanche

Heure Température Précipitation Vent Pression Humidité
00:00 +22°C° 0 mm 3 m/s 751 mmHg 76%
01:00 +22°C° 0 mm 3 m/s 751 mmHg 77%
02:00 +21°C° 0 mm 3 m/s 751 mmHg 80%
03:00 +20°C° 0 mm 3 m/s 751 mmHg 84%
04:00 +19°C° 0 mm 3 m/s 750 mmHg 87%
05:00 +21°C° 0 mm 3 m/s 750 mmHg 82%
06:00 +22°C° 0 mm 4 m/s 750 mmHg 76%
07:00 +23°C° 0 mm 5 m/s 750 mmHg 70%
08:00 +26°C° 0 mm 5 m/s 750 mmHg 64%
09:00 +27°C° 0 mm 4 m/s 751 mmHg 57%
10:00 +28°C° 0 mm 4 m/s 751 mmHg 51%
11:00 +29°C° 0 mm 4 m/s 750 mmHg 49%
12:00 +30°C° 0 mm 5 m/s 750 mmHg 47%
13:00 +30°C° 0 mm 5 m/s 750 mmHg 44%
14:00 +30°C° 0 mm 5 m/s 749 mmHg 45%
15:00 +32°C° 0 mm 4 m/s 749 mmHg 45%
16:00 +32°C° 0 mm 4 m/s 749 mmHg 45%
17:00 +29°C° 0 mm 4 m/s 748 mmHg 53%
18:00 +28°C° 0 mm 3 m/s 748 mmHg 60%
19:00 +26°C° 0 mm 3 m/s 748 mmHg 68%
20:00 +25°C° 0 mm 3 m/s 748 mmHg 71%
21:00 +23°C° 0 mm 4 m/s 748 mmHg 74%
22:00 +22°C° 0 mm 4 m/s 748 mmHg 77%
23:00 +21°C° 0 mm 3 m/s 748 mmHg 81%

Demain, 21 Juin, Lundi

Heure Température Précipitation Vent Pression Humidité
00:00 +21°C° 0 mm 3 m/s 748 mmHg 86%
01:00 +20°C° 0 mm 3 m/s 747 mmHg 90%
02:00 +20°C° 0 mm 3 m/s 747 mmHg 91%
03:00 +20°C° 0 mm 3 m/s 747 mmHg 92%
04:00 +19°C° 0 mm 3 m/s 747 mmHg 93%
05:00 +21°C° 0 mm 4 m/s 747 mmHg 86%
06:00 +22°C° 0 mm 5 m/s 747 mmHg 78%
07:00 +25°C° 0 mm 5 m/s 747 mmHg 71%
08:00 +26°C° 0 mm 5 m/s 747 mmHg 66%
09:00 +27°C° 0 mm 5 m/s 747 mmHg 61%
10:00 +28°C° 0 mm 5 m/s 747 mmHg 56%
11:00 +29°C° 0 mm 5 m/s 746 mmHg 53%
12:00 +30°C° 0 mm 4 m/s 746 mmHg 51%
13:00 +32°C° 0 mm 4 m/s 746 mmHg 48%
14:00 +32°C° 0 mm 4 m/s 746 mmHg 49%
15:00 +32°C° 0 mm 4 m/s 746 mmHg 51%
16:00 +32°C° 0 mm 5 m/s 745 mmHg 52%
17:00 +29°C° 0 mm 4 m/s 745 mmHg 58%
18:00 +28°C° 0 mm 4 m/s 745 mmHg 65%
19:00 +26°C° 0 mm 3 m/s 745 mmHg 72%
20:00 +25°C° 0.1 mm 3 m/s 745 mmHg 76%
21:00 +24°C° 0.1 mm 3 m/s 746 mmHg 80%
22:00 +23°C° 0.1 mm 2 m/s 746 mmHg 84%
23:00 +21°C° 0.2 mm 2 m/s 746 mmHg 86%

Après-demain, 22 Juin, Mardi

Heure Température Précipitation Vent Pression Humidité
00:00 +21°C° 0.2 mm 2 m/s 745 mmHg 88%
01:00 +21°C° 0.2 mm 1 m/s 745 mmHg 91%
02:00 +21°C° 0.2 mm 1 m/s 745 mmHg 92%
03:00 +21°C° 0.2 mm 1 m/s 745 mmHg 94%
04:00 +20°C° 0.2 mm 1 m/s 746 mmHg 95%
05:00 +21°C° 0.3 mm 1 m/s 746 mmHg 91%
06:00 +23°C° 0.3 mm 1 m/s 746 mmHg 87%
07:00 +24°C° 0.3 mm 2 m/s 747 mmHg 83%
08:00 +24°C° 0.3 mm 2 m/s 747 mmHg 81%
09:00 +25°C° 0.3 mm 3 m/s 747 mmHg 78%
10:00 +26°C° 0.3 mm 3 m/s 747 mmHg 75%
11:00 +26°C° 0.1 mm 3 m/s 748 mmHg 74%
12:00 +26°C° 0.1 mm 3 m/s 748 mmHg 73%
13:00 +27°C° 0.1 mm 4 m/s 748 mmHg 72%
14:00 +27°C° 0 mm 3 m/s 748 mmHg 68%
15:00 +28°C° 0 mm 3 m/s 748 mmHg 65%
16:00 +28°C° 0 mm 3 m/s 749 mmHg 61%
17:00 +28°C° 0.1 mm 2 m/s 748 mmHg 66%
18:00 +27°C° 0.1 mm 2 m/s 748 mmHg 71%
19:00 +26°C° 0.1 mm 2 m/s 748 mmHg 76%
20:00 +25°C° 0.2 mm 2 m/s 748 mmHg 80%
21:00 +23°C° 0.2 mm 2 m/s 748 mmHg 85%
22:00 +21°C° 0.2 mm 2 m/s 748 mmHg 90%
23:00 +20°C° 0 mm 2 m/s 749 mmHg 92%

23 Juin, Mercredi

Heure Température Précipitation Vent Pression Humidité
00:00 +20°C° 0 mm 2 m/s 749 mmHg 93%
01:00 +19°C° 0 mm 2 m/s 749 mmHg 95%
02:00 +19°C° 0 mm 2 m/s 749 mmHg 96%
03:00 +18°C° 0 mm 2 m/s 749 mmHg 96%
04:00 +18°C° 0 mm 2 m/s 749 mmHg 97%
05:00 +19°C° 0 mm 2 m/s 749 mmHg 91%
06:00 +21°C° 0 mm 2 m/s 750 mmHg 86%
07:00 +23°C° 0 mm 2 m/s 750 mmHg 81%
08:00 +25°C° 0 mm 2 m/s 750 mmHg 76%
09:00 +26°C° 0 mm 2 m/s 750 mmHg 70%
10:00 +28°C° 0 mm 2 m/s 750 mmHg 65%
11:00 +28°C° 0.1 mm 2 m/s 750 mmHg 62%
12:00 +29°C° 0.1 mm 2 m/s 750 mmHg 60%
13:00 +30°C° 0.1 mm 2 m/s 750 mmHg 57%
14:00 +30°C° 0.1 mm 2 m/s 750 mmHg 58%
15:00 +30°C° 0.1 mm 3 m/s 750 mmHg 59%
16:00 +29°C° 0.1 mm 3 m/s 750 mmHg 61%
17:00 +27°C° 0.2 mm 4 m/s 751 mmHg 69%
18:00 +25°C° 0.2 mm 5 m/s 751 mmHg 77%
19:00 +21°C° 0.2 mm 6 m/s 752 mmHg 85%
20:00 +20°C° 0 mm 5 m/s 752 mmHg 88%
21:00 +19°C° 0 mm 5 m/s 752 mmHg 90%
22:00 +17°C° 0 mm 4 m/s 753 mmHg 93%
23:00 +17°C° 0 mm 4 m/s 753 mmHg 94%

24 Juin, Jeudi

Heure Température Précipitation Vent Pression Humidité
00:00 +15°C° 0 mm 4 m/s 753 mmHg 95%
01:00 +15°C° 0 mm 4 m/s 753 mmHg 96%
02:00 +16°C° 0 mm 3 m/s 753 mmHg 95%
03:00 +16°C° 0 mm 3 m/s 753 mmHg 94%
04:00 +16°C° 0 mm 3 m/s 753 mmHg 93%
05:00 +17°C° 0 mm 3 m/s 753 mmHg 90%
06:00 +18°C° 0 mm 2 m/s 752 mmHg 87%
07:00 +19°C° 0 mm 2 m/s 752 mmHg 83%
08:00 +20°C° 0 mm 2 m/s 752 mmHg 79%
09:00 +23°C° 0 mm 1 m/s 752 mmHg 75%
10:00 +22°C° 0 mm 0 m/s 752 mmHg 72%
11:00 +25°C° 0.1 mm 1 m/s 752 mmHg 68%
12:00 +26°C° 0.1 mm 1 m/s 752 mmHg 64%
13:00 +27°C° 0.1 mm 1 m/s 751 mmHg 60%
14:00 +28°C° 0.1 mm 1 m/s 751 mmHg 59%
15:00 +28°C° 0.1 mm 1 m/s 751 mmHg 58%
16:00 +28°C° 0.1 mm 1 m/s 751 mmHg 57%
17:00 +26°C° 0.9 mm 2 m/s 751 mmHg 66%
18:00 +25°C° 0.9 mm 2 m/s 750 mmHg 76%
19:00 +22°C° 0.9 mm 3 m/s 750 mmHg 86%
20:00 +21°C° 0.7 mm 3 m/s 751 mmHg 90%
21:00 +20°C° 0.7 mm 3 m/s 751 mmHg 93%
22:00 +19°C° 0.7 mm 2 m/s 751 mmHg 96%
23:00 +18°C° 0.1 mm 3 m/s 751 mmHg 97%

25 Juin, Vendredi

Heure Température Précipitation Vent Pression Humidité
00:00 +18°C° 0.1 mm 3 m/s 751 mmHg 97%
01:00 +18°C° 0.1 mm 3 m/s 751 mmHg 97%
02:00 +18°C° 0 mm 4 m/s 751 mmHg 97%
03:00 +17°C° 0 mm 4 m/s 751 mmHg 96%
04:00 +17°C° 0 mm 4 m/s 751 mmHg 96%
05:00 +17°C° 0 mm 4 m/s 751 mmHg 95%
06:00 +17°C° 0 mm 4 m/s 751 mmHg 93%
07:00 +17°C° 0 mm 4 m/s 751 mmHg 92%
08:00 +17°C° 0.1 mm 4 m/s 752 mmHg 90%
09:00 +17°C° 0.1 mm 4 m/s 752 mmHg 89%
10:00 +17°C° 0.1 mm 4 m/s 753 mmHg 87%
11:00 +18°C° 0 mm 4 m/s 752 mmHg 79%
12:00 +20°C° 0 mm 4 m/s 752 mmHg 71%
13:00 +22°C° 0 mm 4 m/s 752 mmHg 63%
14:00 +22°C° 0 mm 3 m/s 752 mmHg 61%
15:00 +22°C° 0 mm 3 m/s 752 mmHg 59%
16:00 +24°C° 0 mm 2 m/s 752 mmHg 58%
17:00 +23°C° 0 mm 2 m/s 751 mmHg 62%
18:00 +21°C° 0 mm 2 m/s 751 mmHg 67%
19:00 +20°C° 0 mm 2 m/s 751 mmHg 71%
20:00 +19°C° 0 mm 2 m/s 751 mmHg 76%
21:00 +18°C° 0 mm 2 m/s 752 mmHg 80%
22:00 +16°C° 0 mm 2 m/s 752 mmHg 85%
23:00 +16°C° 0 mm 2 m/s 752 mmHg 86%
Voir plus

Nous avons besoin de votre consentement

Meteoprog et ses fournisseurs de services peuvent stocker et accéder à des données personnelles telles que des cookies, des identifiants d'appareils ou d'autres technologies similaires sur votre appareil et traiter ces données pour personnaliser le contenu et les publicités, ainsi que pour fournir des fonctionnalités de médias sociaux et analyser le trafic.

  • Stocker et/ou accéder à des informations sur votre appareil

    Des cookies, des identifiants d'appareils ou d'autres informations peuvent être stockés ou accessibles sur votre appareil aux fins indiquées ci-dessus.

  • Annonces et contenus personnalisés, mesure des annonces et des contenus, connaissance de l'audience et développement de produits

    Les annonces et le contenu peuvent être personnalisés en fonction d'un profil. D'autres données peuvent être ajoutées pour mieux personnaliser les annonces et le contenu. Les performances des publicités et du contenu peuvent être mesurées. Il est possible d'obtenir des informations sur le public qui a vu les publicités et le contenu. Ces données peuvent être utilisées pour développer ou améliorer l'expérience de l'utilisateur, les systèmes et les logiciels.

En cliquant sur "J'accepte", vous autorisez l'utilisation de cookies, des identifiants d'appareils, des balises web ou d'autres technologies similaires. Vos paramètres peuvent être modifiés dans le navigateur de votre appareil.

Dans certains cas, des intérêts légitimes peuvent être invoqués plutôt qu'un consentement. Vous pouvez en savoir plus à ce sujet dans notre Politique de confidentialité et de cookies.